TimeEST,TemperatureF,Dew PointF,Humidity,Sea Level PressureIn,VisibilityMPH,Wind Direction,Wind SpeedMPH,Gust SpeedMPH,PrecipitationIn,Events,Conditions,WindDirDegrees,DateUTC
12:53 AM,30.0,18.0,61,30.11,10.0,WSW,5.8,-,N/A,,Overcast,240,2012-11-25 05:53:00
1:53 AM,30.0,18.0,61,30.10,10.0,West,6.9,-,N/A,,Overcast,270,2012-11-25 06:53:00
2:53 AM,30.0,18.0,61,30.10,10.0,Variable,4.6,-,N/A,,Overcast,0,2012-11-25 07:53:00
3:53 AM,28.9,18.0,64,30.09,10.0,WSW,3.5,-,N/A,,Overcast,250,2012-11-25 08:53:00
4:53 AM,28.9,18.0,64,30.08,10.0,SW,3.5,-,N/A,,Overcast,230,2012-11-25 09:53:00
5:20 AM,28.4,17.6,64,30.05,10.0,SSW,3.5,-,N/A,,Overcast,210,2012-11-25 10:20:00
5:53 AM,28.9,19.0,67,30.07,10.0,Variable,3.5,-,N/A,,Overcast,0,2012-11-25 10:53:00
6:53 AM,28.9,19.9,69,30.06,9.0,South,3.5,-,0.00,Snow,Light Snow,190,2012-11-25 11:53:00
7:53 AM,28.9,19.0,67,30.04,9.0,South,4.6,-,0.00,Snow,Light Snow,180,2012-11-25 12:53:00
8:53 AM,30.0,19.0,64,30.04,9.0,SSW,8.1,-,0.00,Snow,Light Snow,210,2012-11-25 13:53:00
9:53 AM,30.9,19.0,61,30.02,9.0,SSW,9.2,-,0.00,Snow,Light Snow,200,2012-11-25 14:53:00
10:53 AM,32.0,19.9,61,29.99,9.0,SSW,8.1,-,0.00,Snow,Light Snow,200,2012-11-25 15:53:00
11:53 AM,35.1,19.9,54,29.96,9.0,SW,6.9,18.4,0.00,Snow,Light Snow,230,2012-11-25 16:53:00
12:53 PM,37.0,19.9,50,29.93,9.0,SW,10.4,19.6,0.00,Snow,Light Snow,220,2012-11-25 17:53:00
1:53 PM,39.9,21.0,47,29.91,10.0,WSW,10.4,-,0.00,,Clear,240,2012-11-25 18:53:00
2:53 PM,41.0,21.0,45,29.90,10.0,Variable,6.9,-,N/A,,Clear,0,2012-11-25 19:53:00
3:53 PM,41.0,21.0,45,29.91,10.0,SW,4.6,-,N/A,,Clear,220,2012-11-25 20:53:00
4:53 PM,39.9,21.9,49,29.92,10.0,SW,3.5,-,N/A,,Clear,230,2012-11-25 21:53:00
5:53 PM,36.0,21.0,55,29.94,10.0,Calm,Calm,-,N/A,,Clear,0,2012-11-25 22:53:00
6:53 PM,30.0,21.9,72,29.96,10.0,Calm,Calm,-,N/A,,Clear,0,2012-11-25 23:53:00
7:53 PM,28.0,21.9,78,29.98,10.0,Calm,Calm,-,N/A,,Clear,0,2012-11-26 00:53:00
8:53 PM,27.0,21.0,78,29.99,10.0,Calm,Calm,-,N/A,,Clear,0,2012-11-26 01:53:00
9:53 PM,28.0,21.9,78,30.00,10.0,Calm,Calm,-,N/A,,Clear,0,2012-11-26 02:53:00
10:53 PM,28.0,21.9,78,30.01,10.0,Calm,Calm,-,N/A,,Clear,0,2012-11-26 03:53:00
11:53 PM,27.0,21.9,81,30.03,10.0,Calm,Calm,-,N/A,,Clear,0,2012-11-26 04:53:00